Flag for Russia Weather past 2 weeks in Surgut, Russia

34 °F

Scattered clouds.

Feels Like: 31 °F
Forecast: 32 / 40 °F
Wind: 3 mph from Southwest

Location: Surgut Airport

Current Time: Oct 7, 2015 at 6:36:49 PM

Latest Report: Oct 7, 2015 at 6:00 PM

Visibility: 4 mi

Pressure: 29.83 "Hg

Humidity: 93%

Dew point: 32 °F

Location of SurgutLocation

Historic Weather in Surgut — Graph


Surgut temperature yesterday

Maximum temperature yesterday: 39 °F (at 7:30 PM)
Minimum temperature yesterday: 32 °F (at 4:00 AM)
Average temperature yesterday: 35 °F

Past Weeks' High & Low Weather Summary

High52 °F (Sep 27, 1:00 PM)100% (Sep 22, 7:30 PM)30.45 "Hg (Sep 22, 7:30 PM)
Low27 °F (Sep 26, 1:00 AM)39% (Sep 25, 3:00 PM)28.94 "Hg (Oct 4, 2:00 AM)
Average36 °F84%29.89 "Hg
* Reported Sep 22 5:00 PM — Oct 7 5:00 PM, Surgut, Weather by CustomWeather, © 2015

Note: Actual official high and low records may vary slightly from our data, if they occured in-between our weather recording intervals... More about our weather records


Surgut weather history for previous 24 hours

Time TempWeatherWind HumidityBarometerVisibility
5:00 PM
Wed, Oct 7
34 °FScattered clouds.3 mph93%29.80 "Hg4 mi
4:30 PM34 °FBroken clouds.6 mph87%29.80 "Hg4 mi
4:00 PM34 °FBroken clouds.6 mph87%29.80 "Hg4 mi
3:30 PM34 °FBroken clouds.6 mph87%29.80 "Hg4 mi
3:00 PM34 °FBroken clouds.3 mph93%29.77 "Hg4 mi
2:30 PM34 °FSnow flurries. Broken clouds.6 mph93%29.77 "Hg1 mi
2:00 PM34 °FSnow showers. Broken clouds.8 mph93%29.77 "Hg1 mi
1:30 PM34 °FSnow flurries. Broken clouds.8 mph93%29.74 "Hg4 mi
1:00 PM34 °FSnow flurries. Partly sunny.8 mph87%29.74 "Hg4 mi
12:30 PM34 °FBroken clouds.10 mph87%29.74 "Hg4 mi
12:00 PM34 °FSnow flurries. Broken clouds.10 mph87%29.74 "Hg4 mi
11:30 AM34 °FSnow flurries. Broken clouds.8 mph93%29.71 "Hg4 mi
11:00 AM34 °FSnow flurries. Broken clouds.8 mph87%29.71 "Hg4 mi
10:30 AM34 °FSnow flurries. Broken clouds.13 mph87%29.71 "Hg4 mi
10:00 AM34 °FSnow flurries. Partly sunny.10 mph81%29.68 "Hg4 mi
9:30 AM34 °FPartly sunny.13 mph87%29.68 "Hg4 mi
9:00 AM34 °FPartly sunny.8 mph87%29.68 "Hg4 mi
8:30 AM32 °FSnow flurries. Broken clouds.8 mph100%29.65 "Hg4 mi
8:00 AM32 °FSnow flurries. Partly sunny.10 mph93%29.65 "Hg2 mi
7:30 AM32 °FSnow flurries. Scattered clouds.10 mph93%29.65 "Hg4 mi
7:00 AM34 °FPassing clouds.13 mph87%29.65 "Hg4 mi
6:30 AM34 °FPassing clouds.8 mph93%29.62 "Hg4 mi
6:00 AM36 °FPassing clouds.8 mph93%29.62 "Hg4 mi
5:30 AM36 °FPassing clouds.13 mph87%29.62 "Hg4 mi
5:00 AM36 °FPassing clouds.8 mph93%29.62 "Hg4 mi
4:30 AM36 °FPassing clouds.10 mph93%29.62 "Hg4 mi
4:00 AM36 °FPassing clouds.8 mph100%29.59 "Hg4 mi
3:30 AM36 °FPassing clouds.3 mph100%29.59 "Hg4 mi
3:00 AM36 °FPassing clouds.3 mph100%29.59 "Hg4 mi
2:30 AM36 °FPassing clouds.6 mph93%29.59 "Hg4 mi
2:00 AM36 °FPassing clouds.8 mph100%29.56 "Hg4 mi
1:30 AM36 °FClear.6 mph100%29.56 "Hg4 mi
1:00 AM36 °FClear.8 mph100%29.56 "Hg4 mi
12:30 AM36 °FPassing clouds.8 mph100%29.56 "Hg4 mi
12:00 AM36 °FPassing clouds.8 mph100%29.53 "Hg4 mi
11:30 PM
Tue, Oct 6
37 °FPassing clouds.10 mph93%29.53 "Hg4 mi
11:00 PM37 °FPassing clouds.8 mph100%29.53 "Hg4 mi
10:30 PM37 °FPartly cloudy.6 mph93%29.53 "Hg4 mi
10:00 PM37 °FPassing clouds.8 mph100%29.53 "Hg4 mi
9:30 PM39 °FPassing clouds.10 mph93%29.53 "Hg4 mi
9:00 PM39 °FOvercast.8 mph93%29.53 "Hg4 mi
8:30 PM39 °FMostly cloudy.10 mph100%29.50 "Hg4 mi
8:00 PM39 °FLight rain. Low clouds.8 mph100%29.50 "Hg4 mi
7:30 PM39 °FLow clouds.8 mph93%29.50 "Hg4 mi
7:00 PM37 °FLow clouds.8 mph100%29.50 "Hg4 mi
6:30 PM37 °FLow clouds.10 mph100%29.50 "Hg4 mi
6:00 PM37 °FLow clouds.10 mph100%29.50 "Hg4 mi
Weather by CustomWeather, © 2015

See weather overviewHow to use our weather pages